Flag for Brazil Weather past 2 weeks in Pelotas, Rio Grande do Sul, Brazil

Now
66 °F

Clear.


Feels Like: 66 °F
Forecast: 62 / 87 °F
Wind: 3 mph from East

Location: Pelotas Airport

Current Time: Dec 19, 2014 at 12:23:22 AM

Latest Report: Dec 19, 2014 at 12:00 AM


Visibility: 10 mi

Pressure: 29.86 "Hg

Humidity: 100%

Dew point: 66 °F

Location of PelotasLocation

Historic Weather in Pelotas — Graph

°F

Pelotas temperature yesterday

Maximum temperature yesterday: 84 °F (at 6:00 PM)
Minimum temperature yesterday: 64 °F (at 5:00 AM)
Average temperature yesterday: 73 °F

Past Weeks' High & Low Weather Summary

 TemperatureHumidityPressure
High91 °F (Dec 7, 12:00 PM)100% (Dec 4, 5:00 AM)30.27 "Hg (Dec 4, 5:00 AM)
Low57 °F (Dec 4, 3:00 AM)33% (Dec 6, 1:00 PM)29.62 "Hg (Dec 10, 5:00 AM)
Average72 °F81%29.92 "Hg
* Reported Dec 3 11:00 PM — Dec 18 11:00 PM, Pelotas, Weather by CustomWeather, © 2014

Note: Actual official high and low records may vary slightly from our data, if they occured in-between our weather recording intervals... More about our weather records

Advertising

Pelotas weather history for previous 24 hours

 ConditionsComfort  
Time TempWeatherWind HumidityBarometerVisibility
11:00 PM
Dec 18
68 °FClear.3 mph94%29.86 "Hg10 mi
10:00 PM70 °FClear.3 mph88%29.83 "Hg10 mi
9:00 PM72 °FClear.3 mph88%29.83 "Hg10 mi
8:00 PM75 °FSunny.6 mph78%29.83 "Hg10 mi
7:00 PM82 °FSunny.8 mph51%29.80 "Hg10 mi
6:00 PM84 °FScattered clouds.9 mph45%29.80 "HgN/A
5:00 PM82 °FPartly sunny.8 mph48%29.83 "HgN/A
4:00 PM82 °FPartly sunny.9 mph48%29.83 "HgN/A
3:00 PM82 °FPartly sunny.12 mph51%29.86 "HgN/A
2:00 PM81 °FPartly sunny.9 mph54%29.86 "HgN/A
1:00 PM79 °FPartly sunny.12 mph61%29.89 "HgN/A
12:00 PM77 °FScattered clouds.9 mph69%29.89 "HgN/A
11:00 AM75 °FScattered clouds.6 mph74%29.89 "HgN/A
10:00 AM73 °FPartly sunny.10 mph83%29.89 "HgN/A
9:00 AM70 °FPartly sunny.5 mph94%29.89 "HgN/A
8:00 AM66 °FScattered clouds.6 mph100%29.89 "HgN/A
7:00 AM64 °FPassing clouds.3 mph100%29.86 "HgN/A
6:00 AM66 °FPassing clouds.5 mph100%29.83 "HgN/A
5:00 AM64 °FPassing clouds.2 mph100%29.83 "HgN/A
4:00 AM66 °FClear.2 mph100%29.83 "Hg10 mi
3:00 AM66 °FClear.3 mph100%29.83 "Hg10 mi
2:00 AM68 °FClear.3 mph100%29.83 "Hg10 mi
1:00 AM68 °FClear.3 mph100%29.83 "Hg10 mi
12:00 AM68 °FClear.3 mph100%29.83 "Hg10 mi
Weather by CustomWeather, © 2014

See weather overviewHow to use our weather pages